Find Kosmos-2275

NORAD ID: 23043 Int'l Des: 1994-021 Owner: VKS Country: RU Constellation: GLONASS operational
MEOCIRCULAR

Current View

Loading 3D Globe...

About Kosmos-2275

Description loading...

Upcoming Passes

Passes for default location (London). Set your location on the main map for personalized predictions.

Altitude History

Loading altitude history...

Two-Line Element Set

1 23043U 94021A 26151.41740860 -.00000058 00000-0 00000+0 0 9996
2 23043 64.0052 301.3933 0020401 186.7448 148.4161 2.13099601249874
Epoch: May 31, 2026 • Age: 9 hours

Current Status

Altitude 19153.9 km
Velocity 3.95 km/s
Sub-Earth Point -63.17°S, 45.97°E
Launch Date Apr 11, 1994
Age 32.1 years
Type other

Technical Details

Classification Payload
Mass 1300.00 kg
Dry Mass 1200.00 kg
Total Mass 1300.00 kg
Length 4.00 m
Diameter 1.50 m
Span 7.80 m
Shape Cyl + Ant + 2 Pan
Manufacturer POL
Bus Type Uragan
Phase Status In Orbit
Owner/State VKS/RU

Most Searched